Location: Horowhenua
(40.7500°S, 175.3333°E)
Time: 06:54:45
(UTC+00:00)

Cosmos 1802 Rocket - Pass Details

Date: 28 January 2023
Orbit: 954 x 1011 km, 82.9° (Epoch: 01 April)

Event Time Altitude Azimuth Distance (km) Brightness Sun altitude
Exits shadow 14:46:08 36° 12° (NNE) 1,478 4.6 -23.3°
Maximum altitude 14:48:45 71° 86° (E) 1,019 4.1 -23.0°
Drops below altitude 10° 14:54:59 10° 168° (SSE) 2,734 7.2 -22.3°
Sets 14:57:31 0° 170° (S) 3,695 8.1 -22.0°
